CST,Max TemperatureF,Mean TemperatureF,Min TemperatureF,Max Dew PointF,MeanDew PointF,Min DewpointF,Max Humidity, Mean Humidity, Min Humidity, Max Sea Level PressureIn, Mean Sea Level PressureIn, Min Sea Level PressureIn, Max VisibilityMiles, Mean VisibilityMiles, Min VisibilityMiles, Max Wind SpeedMPH, Mean Wind SpeedMPH, Max Gust SpeedMPH,PrecipitationIn, CloudCover, Events, WindDirDegrees
2013-11-1,45,40,35,37,33,28,93,77,61,29.89,29.64,29.42,10,8,5,14,7,22,0.00,5,,315
2013-11-2,48,37,28,33,29,25,89,74,52,30.10,30.03,29.90,10,10,8,12,5,,0.00,1,,307
2013-11-3,53,41,30,32,31,28,89,62,45,30.10,29.97,29.86,10,10,9,21,7,38,0.00,2,,142
2013-11-4,48,40,32,39,33,26,82,72,54,30.12,29.88,29.77,10,10,5,15,11,24,0.04,6,Rain,207
2013-11-5,36,31,26,25,23,22,85,70,57,30.27,30.19,30.12,10,10,10,12,4,,0.00,5,,248
2013-11-6,39,32,26,23,19,15,84,62,38,30.19,30.12,30.09,10,10,9,10,6,,0.00,4,,314
2013-11-7,37,29,21,23,20,16,85,69,47,30.25,30.21,30.16,10,9,5,15,2,,0.00,3,Snow,281
2013-11-8,41,30,19,32,24,16,89,72,53,30.19,29.89,29.57,10,8,5,15,4,24,0.00,5,Rain,136
2013-11-9,39,36,33,34,30,26,93,76,62,30.23,29.85,29.58,10,9,6,22,9,32,0.00,8,Snow,284
2013-11-10,39,32,26,27,24,12,75,65,51,30.32,30.22,30.11,10,10,10,21,12,28,0.00,6,,277
2013-11-11,24,20,14,12,6,4,65,60,53,30.78,30.54,30.23,10,10,4,20,15,26,0.00,8,Snow,344
2013-11-12,30,20,10,12,5,3,81,56,32,30.81,30.66,30.38,10,10,10,15,8,,0.00,0,,241
2013-11-13,52,36,21,31,23,13,79,63,41,30.33,29.99,29.85,10,10,10,18,11,24,0.00,0,,210
2013-11-14,51,40,30,33,31,27,89,74,50,29.83,29.80,29.75,10,10,8,7,2,,0.00,2,,236
2013-11-15,53,38,24,37,29,21,100,81,47,29.84,29.75,29.58,10,5,0,15,4,21,0.00,1,Fog,191
2013-11-16,44,42,39,41,39,34,96,87,68,29.55,29.36,29.26,10,4,1,16,9,21,0.06,7,Rain,136
2013-11-17,43,35,27,41,33,19,96,82,69,29.84,29.45,29.25,10,8,0,23,9,33,0.02,8,Fog,292
2013-11-18,28,22,17,18,16,12,84,71,61,30.27,30.14,29.86,10,10,8,20,13,32,0.00,5,,315
2013-11-19,44,30,16,29,21,12,84,65,49,30.28,30.03,29.81,10,10,8,24,8,36,0.00,0,,149
2013-11-20,48,39,30,31,28,27,85,62,49,30.06,29.91,29.81,10,9,6,21,13,34,0.00,3,,171
2013-11-21,35,26,18,30,19,9,87,74,62,30.60,30.32,30.02,10,7,1,20,9,25,0.00,7,Snow,332
2013-11-22,25,16,7,14,5,-1,84,65,46,30.74,30.57,30.44,10,9,2,21,9,28,0.00,3,Snow,294
2013-11-23,14,8,1,0,-2,-4,80,67,45,30.90,30.80,30.65,10,10,7,15,9,,0.00,1,,311
2013-11-24,37,20,3,21,9,-3,76,57,38,30.70,30.23,29.83,10,10,10,22,11,31,0.00,2,,189
2013-11-25,37,31,25,26,22,14,73,64,52,30.10,29.95,29.79,10,10,6,20,11,30,0.00,7,Snow,285
2013-11-26,24,18,12,18,6,1,75,62,50,30.44,30.23,30.05,10,9,2,23,15,37,0.00,6,Snow,324
2013-11-27,21,10,1,9,5,-4,84,69,57,30.44,30.25,30.10,10,9,2,10,4,,0.00,5,Snow,144
2013-11-28,23,15,5,14,9,0,84,69,53,30.56,30.33,30.12,10,8,1,14,5,22,0.00,5,Snow,334
2013-11-29,30,16,3,18,11,-2,84,67,53,30.55,30.36,30.11,10,9,6,17,5,23,0.00,2,,159
2013-11-30,36,28,21,21,19,18,88,73,55,30.22,30.12,30.05,9,8,4,10,6,,0.00,2,,331